Location: Hartha
(51.1030°N, 12.9600°E)
Time: 02:33:46
(UTC+01:00)

ISS - Visible Passes

Search period start: 15 December 2025 00:00
Search period end: 25 December 2025 00:00
Orbit: 416 x 420 km, 51.6° (Epoch: 14 December)

Date Brightness Start Highest point End Pass type
(mag) Time Alt. Az. Time Alt. Az. Time Alt. Az.
15 Dec -0.7 05:40:16 10° S 05:42:06 14° SE 05:43:56 10° ESE visible
15 Dec -2.9 07:15:01 10° SW 07:18:19 53° SSE 07:21:37 10° E visible
16 Dec -2.4 06:27:11 10° SW 06:30:22 39° SSE 06:33:32 10° E visible
17 Dec -1.9 05:41:17 22° S 05:42:26 28° SSE 05:45:22 10° E visible
17 Dec -3.7 07:15:33 10° WSW 07:18:56 83° SSE 07:22:20 10° E visible
18 Dec -0.9 04:55:37 17° ESE 04:55:37 17° ESE 04:57:02 10° E visible
18 Dec -3.5 06:28:35 19° WSW 06:30:52 68° SSE 06:34:14 10° E visible
19 Dec -3.2 05:42:44 51° SSE 05:42:49 51° SSE 05:46:08 10° E visible
19 Dec -3.8 07:16:10 10° W 07:19:33 80° N 07:22:56 10° E visible
20 Dec -0.9 04:56:46 19° E 04:56:46 19° E 04:57:57 10° E visible
20 Dec -3.8 06:29:41 27° W 06:31:24 87° N 06:34:48 10° E visible
21 Dec -3.5 05:43:36 69° E 05:43:36 69° E 05:46:39 10° E visible
21 Dec -3.8 07:16:41 10° W 07:20:04 83° N 07:23:28 10° E visible
22 Dec -0.9 04:57:26 18° E 04:57:26 18° E 04:58:28 10° E visible
22 Dec -3.8 06:30:21 30° W 06:31:53 79° N 06:35:16 10° E visible
23 Dec -3.4 05:44:07 64° ENE 05:44:07 64° ENE 05:47:03 10° E visible
23 Dec -3.6 07:17:06 10° W 07:20:28 75° SSW 07:23:50 10° ESE visible
24 Dec -0.9 04:57:50 18° E 04:57:50 18° E 04:58:49 10° E visible
24 Dec -3.8 06:30:45 30° W 06:32:15 88° SSW 06:35:39 10° ESE visible
